Location: Waco, TX
(31.5480°N, 97.1670°W)
Time: 01:32:40
(UTC-05:00)

ISS - Pass Details

Date: 17 October 2018
Orbit: 403 x 408 km, 51.6° (Epoch: 21 October)

Event Time Altitude Azimuth Distance (km) Brightness Sun altitude
Rises 09:07:37 0° 187° (S) 2,303 0.2 18.3°
Reaches altitude 10° 09:10:20 10° 163° (SSE) 1,450 -0.3 18.9°
Maximum altitude 09:12:15 15° 126° (SE) 1,199 0.8 19.2°
Drops below altitude 10° 09:14:10 10° 90° (E) 1,458 0.4 19.6°
Sets 09:16:54 0° 66° (ENE) 2,323 0.6 20.1°
